Total_Precipitation_Accumulation
1.23 1.18 1.06 0.86 0.75 0.76 0.77 0.73 0.68 0.71 0.66 0.68 0.66 0.70 0.81 0.81 0.81 0.90 0.97 1.00 1.10 1.20 1.22 1.23 1.41 1.55 1.67 1.71 1.73 1.72 1.75 1.67 1.46 1.26 0.99 0.82 0.90 0.90 0.90 0.80 0.86 0.92 0.82
0.94 0.84 0.72 0.57 0.51 0.56 0.57 0.52 0.45 0.47 0.44 0.51 0.55 0.54 0.70 0.86 0.88 0.92 0.94 0.90 0.96 1.02 1.06 1.13 1.24 1.27 1.36 1.51 1.62 1.62 1.70 1.72 1.59 1.47 1.22 1.01 0.98 0.97 1.06 1.09 1.06 1.01 0.98
0.88 0.72 0.64 0.57 0.54 0.53 0.47 0.40 0.32 0.31 0.34 0.38 0.51 0.50 0.54 0.72 0.83 0.84 0.80 0.80 0.84 0.88 0.91 0.98 1.04 1.13 1.23 1.26 1.35 1.46 1.54 1.58 1.63 1.55 1.45 1.31 1.16 1.09 1.09 1.06 1.16 1.30 1.26
1.05 0.85 0.72 0.67 0.56 0.47 0.37 0.34 0.29 0.32 0.36 0.35 0.35 0.37 0.43 0.53 0.65 0.67 0.65 0.65 0.67 0.70 0.82 0.91 0.97 1.01 1.08 1.16 1.19 1.31 1.44 1.53 1.54 1.49 1.44 1.37 1.31 1.28 1.25 1.19 1.25 1.38 1.46
0.74 0.54 0.46 0.44 0.39 0.31 0.25 0.23 0.22 0.22 0.22 0.24 0.21 0.22 0.27 0.35 0.39 0.41 0.48 0.54 0.60 0.66 0.76 0.81 0.85 0.81 0.85 0.93 0.92 1.09 1.25 1.42 1.48 1.51 1.43 1.34 1.27 1.28 1.25 1.26 1.31 1.46 1.53
0.36 0.29 0.25 0.21 0.18 0.16 0.16 0.15 0.11 0.09 0.09 0.14 0.14 0.16 0.20 0.22 0.27 0.25 0.30 0.44 0.54 0.61 0.68 0.72 0.80 0.82 0.78 0.74 0.73 0.81 0.94 1.06 1.23 1.35 1.39 1.31 1.24 1.21 1.29 1.39 1.41 1.47 1.58
0.09 0.07 0.07 0.07 0.07 0.06 0.06 0.07 0.07 0.07 0.06 0.09 0.09 0.13 0.17 0.14 0.16 0.15 0.26 0.46 0.53 0.54 0.53 0.66 0.78 0.84 0.87 0.89 0.77 0.76 0.77 0.81 0.91 1.07 1.21 1.21 1.19 1.20 1.24 1.33 1.41 1.44 1.37
0.02 0.02 0.02 0.03 0.04 0.05 0.06 0.05 0.04 0.03 0.03 0.07 0.08 0.15 0.14 0.09 0.11 0.14 0.21 0.38 0.47 0.45 0.47 0.57 0.72 0.84 0.87 0.89 0.84 0.90 0.88 0.79 0.76 0.83 1.02 1.10 1.09 1.21 1.32 1.42 1.54 1.53 1.49
0.01 0.01 0.01 0.01 0.01 0.02 0.02 0.02 0.01 0.01 0.02 0.06 0.09 0.11 0.08 0.05 0.07 0.11 0.20 0.37 0.46 0.47 0.44 0.52 0.67 0.76 0.86 0.87 0.84 0.95 0.95 0.78 0.71 0.81 0.85 0.91 0.99 1.12 1.29 1.43 1.51 1.52 1.51
0.01 0.01 0.02 0.01 0.02 0.02 0.02 0.01 0.01 0.01 0.02 0.03 0.06 0.07 0.06 0.07 0.06 0.07 0.15 0.26 0.35 0.44 0.44 0.49 0.69 0.74 0.77 0.74 0.76 0.96 1.06 0.93 0.70 0.68 0.75 0.87 0.96 1.09 1.31 1.45 1.66 1.64 1.46
0.01 0.02 0.02 0.02 0.02 0.03 0.04 0.03 0.02 0.02 0.02 0.02 0.03 0.04 0.04 0.04 0.06 0.07 0.13 0.15 0.20 0.26 0.32 0.37 0.40 0.52 0.55 0.59 0.70 0.82 0.92 0.83 0.75 0.83 0.92 0.95 1.02 1.08 1.17 1.30 1.51 1.67 1.58
0.02 0.02 0.02 0.02 0.02 0.04 0.07 0.05 0.03 0.03 0.02 0.03 0.04 0.04 0.05 0.05 0.05 0.06 0.09 0.11 0.13 0.18 0.22 0.27 0.31 0.40 0.44 0.50 0.58 0.63 0.67 0.72 0.78 0.91 0.94 0.86 0.91 0.97 0.98 1.07 1.24 1.37 1.26
0.02 0.02 0.02 0.03 0.04 0.04 0.05 0.05 0.04 0.03 0.03 0.04 0.04 0.05 0.06 0.07 0.06 0.06 0.07 0.08 0.10 0.12 0.15 0.22 0.26 0.34 0.34 0.40 0.48 0.49 0.58 0.80 0.92 0.87 0.84 0.81 0.79 0.83 0.82 0.93 1.13 1.28 1.23
0.02 0.02 0.02 0.03 0.04 0.04 0.03 0.03 0.03 0.03 0.04 0.04 0.05 0.05 0.07 0.10 0.06 0.05 0.07 0.10 0.12 0.15 0.17 0.20 0.24 0.31 0.34 0.37 0.44 0.51 0.63 0.79 0.93 0.79 0.67 0.68 0.69 0.78 0.84 0.83 0.93 1.02 1.17
0.02 0.01 0.02 0.02 0.03 0.04 0.03 0.03 0.03 0.03 0.04 0.04 0.04 0.06 0.05 0.06 0.06 0.07 0.09 0.11 0.15 0.16 0.20 0.29 0.39 0.50 0.50 0.51 0.57 0.61 0.64 0.65 0.70 0.65 0.64 0.68 0.72 0.74 0.80 0.82 0.84 0.85 0.88
0.01 0.01 0.01 0.02 0.03 0.03 0.05 0.05 0.04 0.04 0.04 0.04 0.03 0.04 0.04 0.04 0.06 0.10 0.13 0.13 0.15 0.19 0.29 0.34 0.46 0.60 0.65 0.67 0.68 0.69 0.70 0.66 0.67 0.62 0.64 0.65 0.66 0.66 0.69 0.77 0.85 0.91 0.86
0.02 0.01 0.01 0.02 0.02 0.03 0.04 0.06 0.07 0.06 0.04 0.04 0.03 0.04 0.04 0.05 0.06 0.09 0.12 0.15 0.19 0.28 0.30 0.35 0.53 0.59 0.57 0.59 0.65 0.69 0.63 0.53 0.54 0.54 0.51 0.51 0.52 0.52 0.55 0.61 0.70 0.77 0.78
0.02 0.02 0.02 0.02 0.03 0.03 0.04 0.05 0.06 0.08 0.09 0.07 0.05 0.05 0.05 0.06 0.07 0.09 0.12 0.16 0.22 0.28 0.32 0.46 0.60 0.63 0.58 0.52 0.49 0.46 0.41 0.38 0.40 0.40 0.42 0.42 0.46 0.48 0.49 0.51 0.54 0.57 0.63
0.02 0.02 0.03 0.03 0.04 0.04 0.04 0.05 0.05 0.06 0.07 0.08 0.09 0.08 0.08 0.08 0.08 0.09 0.12 0.16 0.19 0.21 0.28 0.38 0.47 0.54 0.49 0.37 0.31 0.30 0.29 0.31 0.33 0.35 0.39 0.43 0.44 0.46 0.48 0.51 0.52 0.54 0.57
0.03 0.03 0.03 0.04 0.04 0.05 0.05 0.05 0.05 0.06 0.06 0.07 0.08 0.10 0.12 0.12 0.11 0.11 0.13 0.15 0.16 0.17 0.18 0.22 0.26 0.28 0.27 0.25 0.26 0.26 0.28 0.30 0.32 0.35 0.38 0.42 0.46 0.51 0.52 0.51 0.52 0.53 0.54
0.02 0.02 0.03 0.03 0.04 0.04 0.05 0.06 0.07 0.07 0.07 0.08 0.08 0.10 0.13 0.13 0.12 0.13 0.14 0.15 0.16 0.17 0.19 0.21 0.23 0.25 0.26 0.27 0.27 0.28 0.29 0.30 0.33 0.35 0.38 0.43 0.45 0.47 0.52 0.52 0.51 0.52 0.53
0.02 0.03 0.03 0.03 0.04 0.05 0.06 0.07 0.07 0.08 0.08 0.09 0.09 0.10 0.12 0.13 0.13 0.13 0.14 0.16 0.17 0.19 0.21 0.24 0.26 0.29 0.32 0.32 0.31 0.30 0.30 0.30 0.31 0.36 0.39 0.43 0.46 0.46 0.47 0.49 0.51 0.50 0.49
0.02 0.03 0.03 0.05 0.06 0.07 0.09 0.09 0.09 0.09 0.10 0.10 0.11 0.11 0.12 0.12 0.13 0.14 0.14 0.15 0.18 0.20 0.22 0.23 0.25 0.27 0.29 0.30 0.31 0.32 0.32 0.30 0.32 0.36 0.43 0.46 0.49 0.51 0.50 0.49 0.49 0.50 0.49
0.02 0.03 0.03 0.04 0.06 0.08 0.09 0.10 0.10 0.10 0.10 0.12 0.12 0.12 0.13 0.14 0.14 0.15 0.15 0.15 0.17 0.20 0.22 0.22 0.22 0.23 0.25 0.28 0.30 0.32 0.31 0.31 0.33 0.37 0.43 0.49 0.50 0.50 0.53 0.55 0.54 0.53 0.52
0.03 0.03 0.04 0.05 0.07 0.09 0.10 0.11 0.11 0.11 0.11 0.11 0.13 0.14 0.15 0.16 0.16 0.15 0.16 0.16 0.17 0.20 0.23 0.23 0.22 0.22 0.23 0.24 0.27 0.30 0.36 0.37 0.35 0.36 0.39 0.45 0.49 0.50 0.50 0.52 0.56 0.58 0.58
0.04 0.04 0.05 0.06 0.08 0.10 0.12 0.13 0.14 0.14 0.14 0.14 0.14 0.15 0.17 0.19 0.20 0.20 0.19 0.20 0.22 0.23 0.25 0.26 0.25 0.25 0.25 0.26 0.27 0.31 0.35 0.34 0.32 0.34 0.37 0.41 0.46 0.49 0.50 0.51 0.53 0.57 0.61